Location: Huntsville
(41.2590°N, 111.7678°W)
Time: 06:55:33
(UTC+00:00)

Altair - All Passes

Search period start: 15 June 2021 00:00
Search period end: 25 June 2021 00:00
Orbit: 1501 x 1683 km, 47.2° (Epoch: 14 June)

Date Brightness Start Highest point End Pass type
(mag) Time Alt. Az. Time Alt. Az. Time Alt. Az.
15 Jun - 01:49:00 10° WNW 01:58:52 67° NNE 02:08:59 10° E daylight
15 Jun - 03:54:05 10° WNW 04:04:02 71° SW 04:14:08 10° SE visible
15 Jun - 06:00:14 10° W 06:07:40 24° SW 06:15:09 10° S visible
15 Jun - 19:13:21 10° SSE 19:19:28 20° SE 19:25:42 10° E daylight
15 Jun - 21:13:28 10° SW 21:22:45 65° SE 21:32:25 10° ENE daylight
15 Jun - 23:18:05 10° W 23:27:40 69° NNW 23:37:41 10° ENE daylight
16 Jun - 01:23:46 10° WNW 01:33:35 66° N 01:43:39 10° E daylight
16 Jun - 03:28:52 10° WNW 03:38:51 75° SSW 03:48:58 10° SE visible
16 Jun - 05:34:47 10° WNW 05:42:36 26° SW 05:50:28 10° S visible
16 Jun - 18:48:56 10° SSE 18:54:27 17° SE 19:00:04 10° E daylight
16 Jun - 20:48:25 10° SW 20:57:35 61° SE 21:07:10 10° ENE daylight
16 Jun - 22:52:51 10° W 23:02:25 70° NNW 23:12:24 10° ENE daylight
17 Jun - 00:58:33 10° WNW 01:08:17 64° N 01:18:20 10° E daylight
17 Jun - 03:03:40 10° WNW 03:13:38 79° SSW 03:23:48 10° SE daylight
17 Jun - 05:09:22 10° WNW 05:17:31 29° SW 05:25:43 10° S visible
17 Jun - 18:24:39 10° SSE 18:29:26 15° ESE 18:34:16 10° E daylight
17 Jun - 20:23:25 10° SW 20:32:28 57° SE 20:41:54 10° ENE daylight
17 Jun - 22:27:37 10° WSW 22:37:10 73° NNW 22:47:08 10° ENE daylight
18 Jun - 00:33:18 10° WNW 00:43:00 63° N 00:53:01 10° E daylight
18 Jun - 02:38:28 10° WNW 02:48:26 83° SSW 02:58:36 10° SE daylight
18 Jun - 04:43:59 10° WNW 04:52:25 32° SW 05:00:55 10° S visible
18 Jun - 18:00:36 10° SSE 18:04:26 13° ESE 18:08:17 10° E daylight
18 Jun - 19:58:25 10° SSW 20:07:21 52° SE 20:16:38 10° ENE daylight
18 Jun - 22:02:24 10° WSW 22:11:55 75° NNW 22:21:52 10° ENE daylight
19 Jun - 00:08:04 10° WNW 00:17:42 63° N 00:27:41 10° E daylight
19 Jun - 02:13:15 10° WNW 02:23:13 87° SSW 02:33:24 10° ESE daylight
19 Jun - 04:18:39 10° WNW 04:27:18 35° SW 04:36:04 10° SSE visible
19 Jun - 17:37:02 10° SE 17:39:26 11° ESE 17:41:50 10° ESE daylight
19 Jun - 19:33:27 10° SSW 19:42:14 49° SE 19:51:22 10° ENE daylight
19 Jun - 21:37:11 10° WSW 21:46:41 78° NNW 21:56:36 10° ENE daylight
19 Jun - 23:42:49 10° WNW 23:52:25 62° N 00:02:22 10° E daylight
20 Jun - 01:48:03 10° WNW 01:57:59 90° NNE 02:08:11 10° ESE daylight
20 Jun - 03:53:19 10° WNW 04:02:11 38° SW 04:11:11 10° SSE visible
20 Jun - 19:08:31 10° SSW 19:17:08 45° SE 19:26:04 10° ENE daylight
20 Jun - 21:12:00 10° WSW 21:21:27 81° NNW 21:31:20 10° ENE daylight
20 Jun - 23:17:35 10° WNW 23:27:08 62° N 23:37:02 10° E daylight
21 Jun - 01:22:51 10° WNW 01:32:46 86° NNE 01:42:56 10° ESE daylight
21 Jun - 03:28:02 10° WNW 03:37:04 41° SW 03:46:16 10° SSE visible
21 Jun - 18:43:36 10° SSW 18:52:03 41° SE 19:00:46 10° ENE daylight
21 Jun - 20:46:49 10° WSW 20:56:14 84° NNW 21:06:06 10° ENE daylight
21 Jun - 22:52:20 10° W 23:01:50 62° N 23:11:43 10° E daylight
22 Jun - 00:57:40 10° WNW 01:07:31 83° NNE 01:17:40 10° ESE daylight
22 Jun - 03:02:45 10° WNW 03:11:56 44° SW 03:21:18 10° SSE daylight
22 Jun - 18:18:44 10° SSW 18:26:58 38° SE 18:35:27 10° ENE daylight
22 Jun - 20:21:38 10° WSW 20:31:01 87° NNW 20:40:51 10° ENE daylight
22 Jun - 22:27:06 10° W 22:36:33 62° N 22:46:24 10° ENE daylight
23 Jun - 00:32:28 10° WNW 00:42:16 80° NNE 00:52:24 10° ESE daylight
23 Jun - 02:37:30 10° WNW 02:46:48 48° SW 02:56:19 10° SSE daylight
23 Jun - 04:46:55 10° WSW 04:49:49 12° WSW 04:52:45 10° SW visible
23 Jun - 17:53:54 10° SSW 18:01:54 35° SE 18:10:08 10° ENE daylight
23 Jun - 19:56:29 10° WSW 20:05:50 89° SSE 20:15:36 10° ENE daylight
23 Jun - 22:01:51 10° W 22:11:17 62° N 22:21:06 10° ENE daylight
24 Jun - 00:07:16 10° WNW 00:17:01 77° NNE 00:27:07 10° ESE daylight
24 Jun - 02:12:15 10° WNW 02:21:39 51° SW 02:31:18 10° SSE daylight
24 Jun - 04:20:35 10° W 04:24:48 13° WSW 04:29:02 10° SSW visible
24 Jun - 17:29:06 10° S 17:36:50 31° SE 17:44:47 10° ENE daylight
24 Jun - 19:31:20 10° WSW 19:40:39 85° SSE 19:50:22 10° ENE daylight
24 Jun - 21:36:37 10° W 21:46:00 62° N 21:55:47 10° ENE daylight
